Regional Weather Roundup
Issued by NWS Northern Indiana

Home | Current Version | Previous Version | Graphics & Text | Print | Product List | Glossary On
Versions: 1 2 3 4 5 6 7 8 9 10 11 12 13 14 15 16 17 18 19 20 21 22 23 24 25 26 27 28 29 30 31 32 33 34 35 36 37 38 39 40 41 42 43 44 45 46 47 48 49 50
000
ASUS43 KIWX 291700
RWRIWX

KIWX WEATHER ROUNDUP
NATIONAL WEATHER SERVICE NORTHERN INDIANA
100 PM EDT WED OCT 29 2014

NOTE: "FAIR" INDICATES FEW OR NO CLOUDS BELOW 12,000 FEET WITH NO
SIGNIFICANT WEATHER AND/OR OBSTRUCTIONS TO VISIBILITY.

* THESE STATIONS ARE NOT UNDER NWS QUALITY CONTROL. THEY ALSO MAY NOT
  REPORT WEATHER SUCH AS PRECIPITATION OR FOG.

INZ001>027-291800-
NORTHERN INDIANA

CITY           SKY/WX    TMP DP  RH WIND       PRES   REMARKS
GARY*          CLOUDY    48  30  49 MISG      30.09R
SOUTH BEND     CLOUDY    46  34  62 W10       30.06R
ELKHART*       CLOUDY    46  32  57 W14G21    30.05R
GOSHEN         CLOUDY    46  36  68 W13       30.04R
ANGOLA*        CLOUDY    45  37  76 W8        30.02S
FORT WAYNE     CLOUDY    47  34  60 W15G21    30.06R

$$
INZ028>050-291800-
CENTRAL INDIANA

CITY           SKY/WX    TMP DP  RH WIND       PRES   REMARKS
LAFAYETTE      CLOUDY    47  34  60 W14       30.10S
KOKOMO*        CLOUDY    46  32  57 W15       30.09S
MUNCIE*        CLOUDY    47  34  60 W12       30.08R
INDIANAPOLIS   PTSUNNY   52  35  52 NW14      30.09F

$$
MIZ043>046-050>051-056>058-064>065-071>073-077>080-291800-
SOUTHWEST LOWER MICHIGAN

CITY           SKY/WX    TMP DP  RH WIND       PRES   REMARKS
BATTLE CREEK   CLOUDY    45  38  76 W13       30.01R
BENTON HARBOR  CLOUDY    45  35  68 W9        30.04R
COLDWATER*     CLOUDY    47  40  78 W13       30.01S
HILLSDALE*     CLOUDY    47  38  73 W9        29.99S
HOLLAND        CLOUDY    47  36  65 NW10      30.02R
GRAND RAPIDS   CLOUDY    45  43  93 W10       30.00R
KALAMAZOO      CLOUDY    45  38  76 W12       30.02S
STURGIS*       RAIN      43  39  87 NW6       30.02S
THREE RIVERS*  CLOUDY    45  41  85 W9        30.03S

$$
OHZ001>008-015>018-024>025-291800-
NORTHWEST OHIO

CITY           SKY/WX    TMP DP  RH WIND       PRES   REMARKS
DEFIANCE       CLOUDY    49  35  58 W12G20    30.03R
FINDLAY        MOSUNNY   51  35  54 W17       30.01F
TOLEDO EXPRESS CLOUDY    49  36  61 W17G23    30.00S
TOLEDO METCALF CLOUDY    50  37  61 W15       30.00S
LIMA           CLOUDY    48  35  60 W18G28    30.04R

$$
AND FOR LAKE MICHIGAN COASTAL AND OPEN LAKE BUOY OBSERVATIONS

STATION/POSITION TEMP    WIND        PRES    VSBY  WAVE
                 AIR SEA DIR/SP/G                  HT/PER
                 (F)     (DEG/KT/KT) (MB)    (MI)  (FT/S)
CALUMET HARBOR    46     260/  6/ 11 1017.2R
MICHIGAN CITY     46     260/ 17/ 23   N/A
SAINT JOSEPH      47     280/ 12/ 20 1017.3F
SOUTH LAKE BUOY   46 53  300/ 19/ 23 1016.7R         5/ 6

$$
&&



USA.gov is the U.S. government's official web portal to all federal, state and local government web resources and services.